Volver al catálogo

DELTA 1 DEB

ActivoPO
NORAD 42636·DEBRIS·🇺🇸 United States

Lanzado Jun 12, 1975 desde Vandenberg Space Force Base

Loading…

Próximos Pases (próximas 24 horas)

TLE

EnvejeciendoSource: Space-Track

Época: Sep 10, 2026, 23:35 UTC

1 42636U 75052LV  26253.98270176  .00000166  00000-0  47577-3 0  9994
2 42636  99.6805  75.4251 0130123 322.6951 191.1416 13.22280563617304

Sigue DELTA 1 DEB en tiempo real con AllMySat

Download on the App Store